Terminal Aerodrome Forecast
Issued by NWS

Home | Current Version | Previous Version | Graphics & Text | Print | Product List | Glossary Off
Versions: 1 2 3 4 5 6 7 8 9 10 11 12 13 14 15 16 17 18 19 20 21 22 23 24 25 26 27 28 29 30 31 32 33 34 35

000
FTUS43 KDDC 261120
TAFGCK
TAF
KGCK 261120Z 2612/2712 02018G26KT P6SM BKN016
      TEMPO 2612/2614 SCT016 SCT100
     FM261700 05011KT P6SM BKN100
     FM270100 09012KT P6SM SCT040 BKN090=

USA.gov is the U.S. government's official web portal to all federal, state and local government web resources and services.